| time (UTC) | temp C | wind direction | speed KPH | gust KPH | rain 1hr cm | rain 24hr cm | rain mn cm | humidity % | barometer mb |
| 20260510081521 | 22 | 120 | 0.0 | 0.0 | 0.00 | 0.03 | 0.00 | 67 | 1011.3 |
| 20260510080026 | 22 | 120 | 0.0 | 0.0 | 0.00 | 0.03 | 0.00 | 68 | 1011.1 |
| 20260510074533 | 23 | 120 | 0.0 | 0.0 | 0.00 | 0.03 | 0.00 | 69 | 1011.0 |
| 20260510073015 | 23 | 114 | 0.0 | 0.0 | 0.00 | 0.03 | 0.00 | 70 | 1011.0 |
| 20260510071517 | 23 | 120 | 0.0 | 0.0 | 0.00 | 0.03 | 0.00 | 71 | 1011.0 |
| 20260510070022 | 23 | 120 | 0.0 | 0.0 | 0.00 | 0.03 | 0.00 | 72 | 1011.1 |
| 20260510064528 | 23 | 120 | 0.0 | 0.0 | 0.00 | 0.03 | 0.00 | 73 | 1011.2 |
| 20260510063027 | 23 | 126 | 0.0 | 0.0 | 0.00 | 0.03 | 0.00 | 74 | 1011.2 |
| 20260510061525 | 23 | 128 | 0.0 | 0.0 | 0.00 | 0.03 | 0.00 | 74 | 1011.5 |
| 20260510060039 | 23 | 120 | 0.0 | 0.0 | 0.00 | 0.03 | 0.00 | 74 | 1011.5 |
| 20260510054522 | 23 | 120 | 0.0 | 0.0 | 0.00 | 0.03 | 0.00 | 73 | 1011.6 |
| 20260510053028 | 23 | 100 | 0.0 | 0.0 | 0.00 | 0.03 | 0.00 | 73 | 1011.7 |
| 20260510051528 | 24 | 77 | 0.0 | 0.0 | 0.00 | 0.03 | 0.00 | 74 | 1011.8 |
| 20260510050016 | 24 | 70 | 0.0 | 0.0 | 0.00 | 0.03 | 0.00 | 75 | 1012.0 |
| 20260510044524 | 24 | 68 | 0.0 | 0.0 | 0.00 | 0.03 | 0.03 | 74 | 1012.1 |
| 20260510043026 | 24 | 74 | 0.0 | 6.4 | 0.00 | 0.03 | 0.03 | 73 | 1012.2 |
| 20260510041530 | 24 | 59 | 0.0 | 4.8 | 0.03 | 0.03 | 0.03 | 73 | 1012.2 |
| 20260510040028 | 24 | 49 | 0.0 | 8.0 | 0.03 | 0.03 | 0.03 | 73 | 1012.3 |
| 20260510034518 | 24 | 68 | 0.0 | 0.0 | 0.03 | 0.03 | 0.03 | 73 | 1012.0 |
| 20260510033024 | 25 | 99 | 0.0 | 12.9 | 0.03 | 0.03 | 0.03 | 74 | 1011.9 |
| 20260510031536 | 25 | 25 | 0.0 | 0.0 | 0.00 | 0.00 | 0.00 | 76 | 1012.3 |
| 20260510030027 | 25 | 39 | 0.0 | 0.0 | 0.00 | 0.00 | 0.00 | 77 | 1012.0 |
| 20260510024535 | 25 | 55 | 0.0 | 0.0 | 0.00 | 0.00 | 0.00 | 77 | 1011.9 |
| 20260510023035 | 25 | 71 | 0.0 | 0.0 | 0.00 | 0.00 | 0.00 | 78 | 1011.4 |
| 20260510021526 | 26 | 81 | 0.0 | 0.0 | 0.00 | 0.00 | 0.00 | 78 | 1011.3 |
| 20260510020028 | 26 | 70 | 0.0 | 0.0 | 0.00 | 0.00 | 0.00 | 77 | 1010.5 |
| 20260510014527 | 26 | 90 | 0.0 | 0.0 | 0.00 | 0.00 | 0.00 | 75 | 1009.9 |
| 20260510013027 | 26 | 113 | 0.0 | 0.0 | 0.00 | 0.00 | 0.00 | 74 | 1009.7 |
| 20260510011525 | 27 | 73 | 0.0 | 0.0 | 0.00 | 0.00 | 0.00 | 73 | 1009.5 |
| 20260510010011 | 27 | 120 | 0.0 | 0.0 | 0.00 | 0.00 | 0.00 | 70 | 1008.8 |
| 20260510004509 | 28 | 113 | 0.0 | 0.0 | 0.00 | 0.00 | 0.00 | 63 | 1008.8 |
| 20260510003016 | 28 | 7 | 0.0 | 0.0 | 0.00 | 0.00 | 0.00 | 55 | 1008.9 |
| 20260510001519 | 29 | 127 | 0.0 | 0.0 | 0.00 | 0.00 | 0.00 | 53 | 1008.8 |
| 20260510000026 | 30 | 106 | 0.0 | 0.0 | 0.00 | 0.00 | 0.00 | 54 | 1008.6 |
| 20260509234506 | 30 | 357 | 0.0 | 0.0 | 0.00 | 0.00 | 0.00 | 52 | 1008.3 |
| 20260509233009 | 31 | 61 | 0.0 | 8.0 | 0.00 | 0.00 | 0.00 | 62 | 1008.2 |
| 20260509231514 | 32 | 116 | 0.0 | 1.6 | 0.00 | 0.00 | 0.00 | 57 | 1008.2 |
| 20260509230017 | 33 | 117 | 0.0 | 4.8 | 0.00 | 0.00 | 0.00 | 51 | 1008.2 |
| 20260509224523 | 32 | 108 | 0.0 | 0.0 | 0.00 | 0.00 | 0.00 | 52 | 1008.0 |
| 20260509223007 | 33 | 119 | 0.0 | 0.0 | 0.00 | 0.00 | 0.00 | 53 | 1008.0 |
| 20260509221512 | 33 | 106 | 0.0 | 0.0 | 0.00 | 0.00 | 0.00 | 55 | 1007.8 |
| 20260509220016 | 33 | 268 | 0.0 | 0.0 | 0.00 | 0.00 | 0.00 | 49 | 1007.8 |
| 20260509214521 | 33 | 131 | 0.0 | 0.0 | 0.00 | 0.00 | 0.00 | 50 | 1007.8 |
| 20260509213024 | 33 | 105 | 0.0 | 0.0 | 0.00 | 0.00 | 0.00 | 50 | 1007.8 |
| 20260509211507 | 33 | 105 | 0.0 | 0.0 | 0.00 | 0.00 | 0.00 | 51 | 1007.8 |
| 20260509210015 | 33 | 241 | 0.0 | 0.0 | 0.00 | 0.00 | 0.00 | 51 | 1007.9 |
| 20260509204519 | 33 | 94 | 0.0 | 0.0 | 0.00 | 0.00 | 0.00 | 52 | 1008.1 |
| 20260509203034 | 33 | 88 | 0.0 | 0.0 | 0.00 | 0.00 | 0.00 | 53 | 1008.3 |
| 20260509201524 | 33 | 176 | 0.0 | 0.0 | 0.00 | 0.00 | 0.00 | 51 | 1008.5 |
| 20260509200008 | 32 | 160 | 0.0 | 0.0 | 0.00 | 0.00 | 0.00 | 56 | 1008.7 |
| 20260509194514 | 32 | 240 | 0.0 | 0.0 | 0.00 | 0.00 | 0.00 | 53 | 1008.8 |
| 20260509193020 | 33 | 246 | 0.0 | 0.0 | 0.00 | 0.00 | 0.00 | 55 | 1008.7 |
| 20260509191521 | 32 | 162 | 0.0 | 0.0 | 0.00 | 0.00 | 0.00 | 58 | 1008.8 |
| 20260509190025 | 31 | 321 | 0.0 | 0.0 | 0.00 | 0.03 | 0.00 | 57 | 1009.1 |
| 20260509184509 | 31 | 111 | 0.0 | 0.0 | 0.00 | 0.03 | 0.00 | 60 | 1009.0 |
| 20260509183021 | 31 | 8 | 0.0 | 0.0 | 0.00 | 0.03 | 0.00 | 64 | 1009.4 |
| 20260509181520 | 30 | 18 | 0.0 | 0.0 | 0.00 | 0.03 | 0.00 | 66 | 1009.7 |
| 20260509180025 | 29 | 155 | 0.0 | 0.0 | 0.00 | 0.03 | 0.00 | 70 | 1010.0 |
| 20260509174525 | 28 | 176 | 0.0 | 0.0 | 0.00 | 0.03 | 0.00 | 75 | 1010.7 |
| 20260509173013 | 27 | 106 | 0.0 | 0.0 | 0.00 | 0.03 | 0.00 | 76 | 1010.8 |
| 20260509171518 | 27 | 118 | 0.0 | 0.0 | 0.00 | 0.03 | 0.00 | 78 | 1010.8 |
| 20260509170021 | 27 | 110 | 0.0 | 0.0 | 0.00 | 0.05 | 0.00 | 78 | 1010.8 |
| 20260509164526 | 27 | 268 | 0.0 | 0.0 | 0.00 | 0.05 | 0.00 | 78 | 1010.9 |
| 20260509163045 | 28 | 152 | 0.0 | 0.0 | 0.00 | 0.05 | 0.00 | 78 | 1010.8 |
| 20260509161518 | 28 | 223 | 0.0 | 0.0 | 0.00 | 0.05 | 0.00 | 77 | 1010.6 |
| 20260509160020 | 27 | 47 | 0.0 | 0.0 | 0.00 | 0.05 | 0.00 | 79 | 1010.5 |
| 20260509154524 | 26 | 184 | 0.0 | 0.0 | 0.00 | 0.05 | 0.00 | 79 | 1010.6 |
| 20260509153018 | 26 | 115 | 0.0 | 0.0 | 0.00 | 0.05 | 0.00 | 77 | 1010.4 |
| 20260509151514 | 25 | 110 | 0.0 | 0.0 | 0.00 | 0.05 | 0.00 | 73 | 1010.3 |
| 20260509150021 | 25 | 110 | 0.0 | 0.0 | 0.00 | 0.05 | 0.00 | 73 | 1010.2 |
| 20260509144524 | 25 | 110 | 0.0 | 0.0 | 0.00 | 0.05 | 0.00 | 71 | 1010.6 |
| 20260509143028 | 25 | 122 | 0.0 | 0.0 | 0.00 | 0.05 | 0.00 | 70 | 1010.5 |
| 20260509141517 | 25 | 117 | 0.0 | 0.0 | 0.00 | 0.05 | 0.00 | 65 | 1010.6 |
| 20260509140013 | 24 | 142 | 0.0 | 0.0 | 0.00 | 0.05 | 0.00 | 63 | 1010.4 |
| 20260509134520 | 24 | 197 | 0.0 | 0.0 | 0.00 | 0.05 | 0.00 | 63 | 1010.5 |
| 20260509133025 | 24 | 189 | 0.0 | 0.0 | 0.00 | 0.05 | 0.00 | 63 | 1010.4 |
| 20260509131531 | 23 | 203 | 0.0 | 0.0 | 0.00 | 0.05 | 0.00 | 64 | 1010.7 |
| 20260509130017 | 23 | 106 | 0.0 | 0.0 | 0.00 | 0.05 | 0.00 | 64 | 1010.4 |
| 20260509124516 | 23 | 81 | 0.0 | 0.0 | 0.00 | 0.05 | 0.00 | 64 | 1010.6 |
| 20260509123028 | -17 | 0.0 | 0.0 | 0.00 | 0.05 | 0.00 | 1010.6 | ||
| 20260509121531 | -17 | 0.0 | 0.0 | 0.00 | 0.05 | 0.00 | 1010.4 | ||
| 20260509120034 | -17 | 0.0 | 0.0 | 0.00 | 0.05 | 0.00 | 1010.4 | ||
| 20260509114533 | -17 | 0.0 | 0.0 | 0.00 | 0.05 | 0.00 | 1010.5 | ||
| 20260509113030 | -17 | 0.0 | 0.0 | 0.00 | 0.05 | 0.00 | 1010.3 | ||
| 20260509111530 | -17 | 0.0 | 0.0 | 0.00 | 0.05 | 0.00 | 1010.3 | ||
| 20260509110029 | -17 | 0.0 | 0.0 | 0.00 | 0.05 | 0.00 | 1010.0 | ||
| 20260509104535 | -17 | 0.0 | 0.0 | 0.00 | 0.05 | 0.00 | 1009.9 | ||
| 20260509103030 | -17 | 0.0 | 0.0 | 0.00 | 0.05 | 0.00 | 1009.9 | ||
| 20260509101531 | -17 | 0.0 | 0.0 | 0.00 | 0.05 | 0.00 | 1009.8 | ||
| 20260509100030 | -17 | 0.0 | 0.0 | 0.00 | 0.05 | 0.00 | 1009.9 | ||
| 20260509094528 | -17 | 0.0 | 0.0 | 0.00 | 0.05 | 0.00 | 1009.7 | ||
| 20260509093028 | -17 | 0.0 | 0.0 | 0.00 | 0.05 | 0.00 | 1009.6 | ||
| 20260509091534 | -17 | 0.0 | 0.0 | 0.00 | 0.05 | 0.00 | 1009.4 | ||
| 20260509090026 | 23 | 82 | 0.0 | 0.0 | 0.00 | 0.05 | 0.00 | 64 | 1009.6 |
| 20260509084526 | 22 | 82 | 0.0 | 0.0 | 0.00 | 0.05 | 0.00 | 64 | 1009.5 |
| 20260509083025 | 22 | 81 | 0.0 | 0.0 | 0.00 | 0.05 | 0.00 | 65 | 1009.5 |